KK7GO-7 Weather Reports


time (UTC)temp
F
wind
direction
speed
knots
gust
knots
rain 1hr
in
rain 24hr
in
rain mn
in
humidity
%
barometer
mb
20260904100825 53 360 0.0 0.9 0.00 0.00 0.00 72 1010.4
20260904100337 53 360 0.0 0.9 0.00 0.00 0.00 73 1010.3
20260904095838 53 360 0.0 1.7 0.00 0.00 0.00 73 1010.3
20260904095331 53 360 0.0 1.7 0.00 0.00 0.00 73 1010.1
20260904094856 53 360 0.0 0.9 0.00 0.00 0.00 73 1010.1
20260904094329 53 360 0.0 0.9 0.00 0.00 0.00 72 1010.0
20260904093827 53 360 0.0 2.6 0.00 0.00 0.00 73 1010.1
20260904093344 53 360 0.9 2.6 0.00 0.00 0.00 72 1010.1
20260904092839 53 360 0.0 1.7 0.00 0.00 0.00 72 1010.0
20260904092333 53 360 0.0 1.7 0.00 0.00 0.00 73 1010.0
20260904091826 53 360 0.0 1.7 0.00 0.00 0.00 73 1010.0
20260904091343 53 360 0.0 1.7 0.00 0.00 0.00 73 1010.0
20260904090839 52 360 0.9 1.7 0.00 0.00 0.00 73 1009.9
20260904090344 52 360 0.0 2.6 0.00 0.00 0.00 74 1009.9
20260904085836 52 360 0.9 2.6 0.00 0.00 0.00 74 1009.9
20260904085330 52 360 1.7 2.6 0.00 0.00 0.00 72 1009.8
20260904084846 52 41 1.7 2.6 0.00 0.00 0.00 72 1009.8
20260904084341 52 24 0.9 2.6 0.00 0.00 0.00 72 1009.9
20260904083840 52 22 1.7 2.6 0.00 0.00 0.00 72 1010.0
20260904083351 52 360 0.9 1.7 0.00 0.00 0.00 72 1010.0
20260904082823 52 360 0.0 2.6 0.00 0.00 0.00 72 1010.0
20260904082339 52 360 0.0 2.6 0.00 0.00 0.00 72 1010.0
20260904081842 52 360 0.9 2.6 0.00 0.00 0.00 72 1010.0
20260904081339 52 360 0.0 3.5 0.00 0.00 0.00 72 1009.9
20260904080833 52 360 0.9 3.5 0.00 0.00 0.00 72 1009.8
20260904080330 52 360 0.9 2.6 0.00 0.00 0.00 71 1009.8
20260904075843 53 360 0.9 2.6 0.00 0.00 0.00 70 1009.7
20260904075341 53 360 0.9 2.6 0.00 0.00 0.00 70 1009.7
20260904074859 53 47 0.9 2.6 0.00 0.00 0.00 69 1009.8
20260904074331 53 51 0.0 2.6 0.00 0.00 0.00 68 1009.8
20260904073848 53 51 0.9 2.6 0.00 0.00 0.00 68 1009.8
20260904073341 54 51 0.9 1.7 0.00 0.00 0.00 67 1009.6
20260904072833 54 51 0.0 1.7 0.00 0.00 0.00 67 1009.7
20260904072335 54 51 0.0 1.7 0.00 0.00 0.00 68 1009.7
20260904071830 54 51 0.0 1.7 0.00 0.00 0.00 66 1009.6
20260904071345 54 70 0.0 2.6 0.00 0.00 0.00 65 1009.5
20260904070842 55 70 0.9 2.6 0.00 0.00 0.00 65 1009.5
20260904070341 55 74 0.9 2.6 0.00 0.00 0.00 65 1009.4
20260904065826 55 78 0.9 1.7 0.00 0.00 0.00 64 1009.5
20260904065344 55 83 0.9 2.6 0.00 0.00 0.00 64 1009.5
20260904064839 55 83 0.9 2.6 0.00 0.00 0.00 64 1009.4
20260904064333 56 85 0.0 2.6 0.00 0.00 0.00 63 1009.4
20260904063826 55 85 1.7 3.5 0.00 0.00 0.00 63 1009.5
20260904063339 55 360 1.7 3.5 0.00 0.00 0.00 64 1009.6
20260904062832 55 360 1.7 2.6 0.00 0.00 0.00 65 1009.6
20260904062326 56 360 0.9 2.6 0.00 0.00 0.00 65 1009.6
20260904061843 56 360 0.9 2.6 0.00 0.00 0.00 64 1009.6
20260904061339 56 360 1.7 2.6 0.00 0.00 0.00 63 1009.5
20260904060904 56 360 0.0 3.5 0.00 0.00 0.00 63 1009.6
20260904060400 56 360 1.7 3.5 0.00 0.00 0.00 63 1009.5
20260904055842 56 360 0.9 1.7 0.00 0.01 0.00 64 1009.6
20260904055340 56 360 0.0 1.7 0.00 0.01 0.00 64 1009.6
20260904054835 56 360 0.9 2.6 0.00 0.01 0.00 64 1009.6
20260904054331 56 360 0.9 2.6 0.00 0.01 0.00 64 1009.7
20260904053856 56 360 0.9 2.6 0.00 0.01 0.00 64 1009.7
20260904053401 56 360 0.9 2.6 0.00 0.01 0.00 64 1009.8
20260904052833 56 360 0.9 2.6 0.00 0.01 0.00 64 1009.8
20260904052329 57 43 0.9 4.3 0.00 0.01 0.00 63 1009.8
20260904051827 57 30 1.7 4.3 0.00 0.01 0.00 63 1009.8
20260904051344 57 17 2.6 4.3 0.00 0.01 0.00 63 1009.9
20260904050836 57 360 1.7 4.3 0.00 0.01 0.00 63 1009.9
20260904050334 57 360 2.6 4.3 0.00 0.01 0.00 62 1010.0
20260904045831 57 360 1.7 4.3 0.00 0.01 0.00 62 1010.0
20260904045327 57 29 0.9 7.0 0.00 0.01 0.00 62 1009.9
20260904044841 57 29 1.7 8.7 0.00 0.01 0.00 62 1010.0
20260904044338 57 24 4.3 8.7 0.00 0.01 0.00 62 1009.9
20260904043831 57 17 1.7 4.3 0.00 0.01 0.00 62 1010.0
20260904043347 57 26 1.7 4.3 0.00 0.01 0.00 62 1009.9
20260904042841 57 43 1.7 7.0 0.00 0.01 0.00 62 1009.9
20260904042338 57 47 4.3 7.0 0.00 0.01 0.00 62 1009.9
20260904041832 57 360 1.7 3.5 0.00 0.01 0.00 62 1009.9
20260904041327 57 360 0.9 2.6 0.00 0.01 0.00 62 1009.8
20260904040843 57 360 0.9 2.6 0.00 0.01 0.00 61 1009.8
20260904040343 57 360 0.9 3.5 0.00 0.01 0.00 62 1009.7
20260904035906 57 360 0.9 3.5 0.00 0.01 0.00 62 1009.7
20260904035342 57 360 0.9 4.3 0.00 0.01 0.00 62 1009.6
20260904034839 57 17 1.7 4.3 0.00 0.01 0.00 63 1009.4
20260904034334 58 360 1.7 4.3 0.00 0.01 0.00 62 1009.4
20260904033831 58 360 1.7 7.0 0.00 0.01 0.00 62 1009.4
20260904033329 58 360 1.7 8.7 0.00 0.01 0.00 62 1009.5
20260904032837 58 360 3.5 8.7 0.00 0.01 0.00 62 1009.4
20260904032331 58 360 2.6 5.2 0.00 0.01 0.00 61 1009.3
20260904031829 58 360 1.7 3.5 0.00 0.01 0.00 62 1009.1
20260904031347 58 360 1.7 3.5 0.00 0.01 0.00 61 1008.9
20260904030852 59 360 0.9 3.5 0.00 0.01 0.00 61 1008.9
20260904030359 59 360 0.9 3.5 0.00 0.01 0.00 60 1008.7
20260904025849 59 360 0.9 3.5 0.00 0.01 0.00 60 1008.7
20260904025409 59 360 0.0 5.2 0.00 0.01 0.00 59 1008.7
20260904024846 60 360 1.7 5.2 0.00 0.01 0.00 58 1008.6
20260904024345 60 360 0.9 7.0 0.00 0.01 0.00 57 1008.4
20260904023834 60 17 0.9 7.0 0.00 0.01 0.00 56 1008.3
20260904023406 60 360 0.0 1.7 0.00 0.01 0.00 56 1008.4
20260904022840 61 360 0.0 7.0 0.00 0.01 0.00 57 1008.3
20260904022336 61 360 0.0 7.0 0.00 0.01 0.00 57 1008.3
20260904021833 61 360 1.7 5.2 0.00 0.01 0.00 56 1008.3
20260904021349 61 360 1.7 4.3 0.00 0.01 0.00 56 1008.2
20260904020845 62 360 1.7 7.0 0.00 0.01 0.00 55 1008.0
20260904020338 62 360 0.9 7.0 0.00 0.01 0.00 54 1008.1
20260904015842 62 360 0.9 3.5 0.00 0.01 0.00 54 1008.2
20260904015355 63 360 1.7 7.0 0.00 0.01 0.00 53 1008.1
20260904014843 63 26 3.5 7.0 0.00 0.01 0.00 53 1008.0
20260904014329 64 114 1.7 5.2 0.00 0.01 0.00 52 1008.0
20260904013845 64 360 1.7 3.5 0.00 0.01 0.00 51 1008.0
20260904013352 64 115 0.9 3.5 0.00 0.01 0.00 51 1007.9
20260904012834 65 360 1.7 3.5 0.00 0.01 0.00 51 1007.9
20260904012344 66 360 1.7 7.0 0.00 0.01 0.00 50 1007.8
20260904011839 66 360 1.7 7.0 0.00 0.01 0.00 49 1007.9
20260904011335 67 360 0.9 2.6 0.00 0.01 0.00 47 1007.9
20260904010845 67 360 0.9 4.3 0.00 0.01 0.00 46 1007.9
20260904010434 68 360 0.9 4.3 0.00 0.01 0.00 46 1007.8
20260904005829 68 360 0.9 3.5 0.00 0.01 0.00 43 1007.9
20260904005336 69 164 1.7 4.3 0.00 0.01 0.00 39 1007.8
20260904004840 69 78 0.9 6.1 0.00 0.01 0.00 39 1007.8
20260904004338 70 163 2.6 6.1 0.00 0.01 0.00 39 1007.8
20260904003846 70 149 2.6 5.2 0.00 0.01 0.00 38 1007.7
20260904003349 70 155 0.9 5.2 0.00 0.01 0.00 38 1007.8
20260904002828 70 157 1.7 5.2 0.00 0.01 0.00 37 1007.8
20260904002342 70 202 2.6 6.1 0.00 0.01 0.00 36 1007.8
20260904001856 70 195 3.5 7.0 0.00 0.01 0.00 37 1007.8
20260904001340 70 198 1.7 7.0 0.00 0.01 0.00 37 1007.8
20260904000836 70 209 1.7 6.1 0.00 0.01 0.00 37 1007.8
20260904000348 70 152 3.5 6.1 0.00 0.01 0.00 37 1007.9
20260903235843 70 159 2.6 6.1 0.00 0.01 0.00 37 1007.9
20260903235339 70 188 2.6 7.8 0.00 0.01 0.00 36 1007.9
20260903234835 70 159 4.3 7.8 0.00 0.01 0.00 37 1008.0
20260903234331 70 195 4.3 7.8 0.00 0.01 0.00 36 1007.9
20260903233827 70 183 1.7 7.8 0.00 0.01 0.00 36 1007.9
20260903233344 69 222 3.5 8.7 0.00 0.01 0.00 37 1008.0
20260903232840 70 360 6.1 8.7 0.00 0.01 0.00 37 1008.1
20260903232336 70 147 4.3 8.7 0.00 0.01 0.00 38 1008.2
20260903231857 70 172 4.3 8.7 0.00 0.01 0.00 37 1008.1
20260903231332 69 194 4.3 8.7 0.00 0.01 0.00 38 1008.1
20260903230826 70 360 7.0 8.7 0.00 0.01 0.00 38 1008.2
20260903230342 70 140 6.1 9.6 0.00 0.01 0.00 39 1008.2
20260903225905 69 189 4.3 9.6 0.00 0.01 0.00 37 1008.2
20260903225338 69 178 5.2 8.7 0.00 0.01 0.00 38 1008.2
20260903224841 69 164 7.8 10.4 0.00 0.01 0.00 38 1008.2
20260903224405 69 178 5.2 10.4 0.00 0.01 0.00 40 1008.3
20260903223844 69 184 5.2 9.6 0.00 0.01 0.00 41 1008.3
20260903223341 68 142 6.1 9.6 0.00 0.01 0.00 40 1008.5
20260903222842 68 186 4.3 14.8 0.00 0.01 0.00 43 1008.5
20260903222340 67 152 7.8 14.8 0.00 0.01 0.00 40 1008.4
20260903221903 68 192 7.8 11.3 0.00 0.01 0.00 39 1008.6
20260903221336 69 157 7.8 11.3 0.00 0.01 0.00 39 1008.5
20260903220829 68 166 5.2 13.0 0.00 0.01 0.00 42 1008.6
20260903220346 68 157 6.1 13.0 0.00 0.01 0.00 40 1008.5
20260903215924 68 168 6.1 13.0 0.00 0.01 0.00 41 1008.6